weather.gov     
National Weather Service

Regional Weather Roundup
NWS Homepage
This page is being discontinued on March 12, 2014.
The same data is available at this site. Please update your bookmarks.
Thank you, and we apologize for the inconvenience.
Please send an email to SR-SRH.Webmaster@noaa.gov with any concerns.


Current Version
Previous Version:    01  02  03  04  05  06  07  08  09  10  11  12  13  14  15  16  17  18  19  20  21  22  23  24  25  26  27  
[Printable]
846
ASUS42 KCAE 300110
RWRCAE
REGIONAL WEATHER ROUNDUP
NATIONAL WEATHER SERVICE COLUMBIA SC
900 PM EDT TUE JUL 29 2014

NOTE: "FAIR" INDICATES FEW OR NO CLOUDS BELOW 12,000 FEET WITH NO
SIGNIFICANT WEATHER AND/OR OBSTRUCTIONS TO VISIBILITY.

NOT ALL STATIONS ARE QUALITY CONTROLLED BY THE NATIONAL
WEATHER SERVICE. USE DATA WITH CAUTION...ESPECIALLY
DEWPOINT OBSERVATIONS.

SCZ001>056-GAZ040-063>065-077-300200-
...UPSTATE SOUTH CAROLINA...

CITY           SKY/WX    TMP DP  RH WIND       PRES   REMARKS
ANDERSON       CLEAR     77  54  44 W3        29.97R
LIBERTY        FAIR      74  74 100 MISG      29.98R
SPARTANBURG    FAIR      75  63  64 CALM      29.97R
CLEMSON        CLEAR     77  53  43 W8        29.98R
GREENVILLE     CLOUDY    77  56  48 N10       29.99R
GREENWOOD      CLEAR     72  58  61 CALM      29.98R
GREER          CLOUDY    77  57  50 N7        29.97R
ROCK HILL      CLEAR     71  61  70 CALM      29.98R
CHESTER        FAIR      73  63  68 CALM      29.98R
LAURENS        FAIR      73  61  64 CALM      29.98R


...CENTRAL SOUTH CAROLINA...

CITY           SKY/WX    TMP DP  RH WIND       PRES   REMARKS
COLUMBIA APT   PTCLDY    84  56  38 NE5       29.94R
COLUMBIA OWENS CLEAR     81  57  43 CALM      29.95R
DARLINGTON     CLEAR     75  64  69 CALM      29.96R
FLORENCE       PTCLDY    78  62  57 N5        29.94R
MCENTIRE ANGB  PTCLDY    77  61  57 VRB3      29.95R
ORANGEBURG     CLEAR     76  65  68 CALM      29.94R
SUMTER SHAW    CLEAR     76  63  65 NE5       29.93R
NEWBERRY       FAIR      75  59  57 NE5       29.99R
AIKEN          CLOUDY    81  63  54 NE5       29.99R
BARNWELL       FAIR      79  64  61 CALM      29.94R
MANNING        MOCLDY    77  72  83 CALM      29.94R
CAMDEN         FAIR      77  57  50 CALM      29.96R
LANCASTER      FAIR      73  59  60 CALM      29.97R
WINNSBORO      FAIR      77  55  47 N5        29.96R


...EASTERN AND COASTAL SOUTH CAROLINA...

CITY           SKY/WX    TMP DP  RH WIND       PRES   REMARKS
MYRTLE BEACH   PTCLDY    79  70  73 SW6       29.93
N MYRTLE BCH   PTCLDY    77  71  82 CALM      29.93R
CONWAY         FAIR      73  72  94 CALM      29.94R
MARION         FAIR      75  64  69 N5        29.94R
HARTSVILLE     FAIR      77  36  22 N5        29.97R
FLORENCE       PTCLDY    78  62  57 N5        29.94R
DARLINGTON     CLEAR     75  64  69 CALM      29.96R
CHARLESTON APT PTCLDY    83  68  60 E3        29.93R
MOUNT PLEASANT FAIR      77  73  88 CALM      29.93R
WALTERBORO       N/A     77  70  78 CALM      29.94R
BEAUFORT       PTCLDY    80  69  69 CALM      29.93R


...EASTERN GEORGIA...

CITY           SKY/WX    TMP DP  RH WIND       PRES   REMARKS
AUGUSTA BUSH F MOCLDY    78  63  59 W5        29.93R
AUGUSTA DANIEL PTCLDY    83  59  44 VRB3      29.95R
THOMSON        CLEAR     76  68  77 CALM      30.00R
WASHINGTON     FAIR      81  64  57 NW3       29.97R
CLAXTON        MOCLDY    79  73  83 CALM      29.93R
SYLVANIA       CLEAR     76  73  92 CALM      29.94R
STATESBORO     PTCLDY    76  71  84 CALM      29.94R
SAVANNAH       PTCLDY    81  61  50 N3        29.93R


...SOUTHERN NORTH CAROLINA...

CITY           SKY/WX    TMP DP  RH WIND       PRES   REMARKS
CHARLOTTE      PTCLDY    75  53  46 CALM      29.98R
MONROE         CLEAR     71  60  68 CALM      29.96R
WADESBORO      CLEAR     70  64  82 CALM      29.96R HAZE
ROCKINGHAM       N/A     77  61  57 CALM      29.95R
RUTHERFORDTON  CLOUDY    73  58  60 NE3       30.01R
ASHEVILLE      CLEAR     67  51  56 N13G20    30.07R

$$




U.S. Dept. of Commerce
NOAA National Weather Service
1325 East West Highway
Silver Spring, MD 20910
E-mail: w-nws.webmaster@noaa.gov
Page last modified: May 16, 2007
NATIONAL WEATHER SERVICE: for Safety, for Work, for Fun - FOR LIFE